STARLINK BB (44284 NORAD) Tracking and Keplerian Element Data

This shows tracking and keplerian element data for the satellite.

Feedback or suggestion? Click here.




ElementValue
Catalog44284
NameSTARLINK BB
Epoch Orbit472
Epoch Day174.46948849
Epoch Year2019
RAAN35.581
Inclination53.0042
Eccentricity0.0002703
Argument of Perigee104.7242
Mean Anonmoly255.4045
Mean Motion15.0475245
Decay Rate-0.00012761
L11 44284U 19029BB 19174.46948849 -.00012761 00000-0 -87755-3 0 9991
L22 44284 53.0042 35.5810 0002703 104.7242 255.4045 15.04752450 4723

Live tracking and technical data element details for STARLINK BB (NORAD 44284). STARLINK BB can be tracked NOW for your location showing map with azimuth and elevation plus other details from your city location.

Track the satellite on the map from your city or location and see movement details for azimuth, elevation, latitude, longitude, range, height, and movement on the map or in text.







IsCatalogInMostPopularTable: catalog: 44284, numindb: 39
Update: records affected: 1



GetName: 44284 STARLINK BB

Hit Count: updated at: Mon, 22 Jul 2019 15:53:53 GMT